B3355 RCTP-ZSSS

Flight info

Callsign B3355
Flight time N/A
Altitude 29000
Route PIANO L3 VIOLA R596 SULEM/K0865S0885 R596 DST B221 SHZ G204 JTN
Aircraft CL60/M-SBDE1E2E3FGHIJ1J4J5J7M3RWXYZ/LB1V1D1

Departure

Time 2026-05-06 14:20
Airport Taiwan Taoyuan International Airport (RCTP)

Arrival

Time N/A
Airport Shanghai Hongqiao International Airport (ZSSS)
Time Latitude Longitude Altitude Speed Heading
2026-05-06 14:03 25.07241 121.23312 115 ft 0 kts 320°
2026-05-06 14:12 25.07242 121.23312 115 ft 0 kts 320°
2026-05-06 14:13 25.07233 121.23319 115 ft 2 kts 320°
2026-05-06 14:13 25.07221 121.23331 115 ft 2 kts 320°
2026-05-06 14:13 25.07210 121.23341 115 ft 2 kts 320°
2026-05-06 14:14 25.07199 121.23351 116 ft 2 kts 323°
2026-05-06 14:14 25.07187 121.23362 116 ft 2 kts 320°
2026-05-06 14:14 25.07175 121.23372 116 ft 2 kts 320°
2026-05-06 14:14 25.07164 121.23383 116 ft 2 kts 320°
2026-05-06 14:15 25.07158 121.23388 116 ft 0 kts 306°
2026-05-06 14:15 25.07157 121.23395 116 ft 0 kts 248°
2026-05-06 14:15 25.07160 121.23399 116 ft 0 kts 229°
2026-05-06 14:16 25.07157 121.23396 115 ft 3 kts 229°
2026-05-06 14:16 25.07105 121.23328 116 ft 14 kts 229°
2026-05-06 14:16 25.07038 121.23243 116 ft 15 kts 229°
2026-05-06 14:17 25.06961 121.23144 116 ft 18 kts 229°
2026-05-06 14:17 25.06875 121.23035 116 ft 15 kts 230°
2026-05-06 14:17 25.06804 121.22945 116 ft 15 kts 228°
2026-05-06 14:17 25.06724 121.22844 116 ft 19 kts 229°
2026-05-06 14:18 25.06630 121.22723 116 ft 22 kts 229°
2026-05-06 14:18 25.06522 121.22587 116 ft 23 kts 229°
2026-05-06 14:18 25.06409 121.22443 116 ft 26 kts 229°
2026-05-06 14:18 25.06293 121.22295 116 ft 23 kts 229°
2026-05-06 14:19 25.06190 121.22264 116 ft 15 kts 142°
2026-05-06 14:19 25.06114 121.22364 116 ft 16 kts 93°
2026-05-06 14:19 25.06192 121.22486 116 ft 42 kts 50°
2026-05-06 14:19 25.06628 121.23037 122 ft 142 kts 47°
2026-05-06 14:20 25.07409 121.24046 361 ft 196 kts 48°
2026-05-06 14:20 25.08359 121.25254 1002 ft 223 kts 49°
2026-05-06 14:20 25.09433 121.26665 1498 ft 249 kts 49°
2026-05-06 14:20 25.10542 121.28128 2034 ft 251 kts 49°
2026-05-06 14:21 25.11671 121.29614 2566 ft 254 kts 48°
2026-05-06 14:21 25.13063 121.30792 3072 ft 257 kts 19°
2026-05-06 14:21 25.14854 121.30930 3571 ft 261 kts 351°
2026-05-06 14:21 25.16662 121.30592 4098 ft 265 kts 349°
2026-05-06 14:22 25.18499 121.30342 4632 ft 269 kts 353°
2026-05-06 14:22 25.20384 121.30147 5175 ft 273 kts 353°
2026-05-06 14:22 25.22277 121.29947 5716 ft 277 kts 352°
2026-05-06 14:22 25.24202 121.29742 6264 ft 281 kts 352°
2026-05-06 14:23 25.26171 121.29533 6833 ft 284 kts 352°
2026-05-06 14:23 25.28165 121.29319 7468 ft 295 kts 352°
2026-05-06 14:23 25.30193 121.29102 8718 ft 299 kts 351°
2026-05-06 14:23 25.32223 121.28885 10084 ft 297 kts 351°
2026-05-06 14:24 25.34320 121.28657 10839 ft 318 kts 351°
2026-05-06 14:24 25.36639 121.28552 11336 ft 346 kts
2026-05-06 14:24 25.39015 121.29266 12122 ft 365 kts 24°
2026-05-06 14:24 25.41043 121.30956 13019 ft 376 kts 44°
2026-05-06 14:25 25.42781 121.33157 13890 ft 384 kts 47°
2026-05-06 14:25 25.44520 121.35392 14872 ft 385 kts 46°
2026-05-06 14:25 25.46269 121.37633 15775 ft 388 kts 46°
2026-05-06 14:25 25.48026 121.39885 16646 ft 391 kts 45°
2026-05-06 14:26 25.49808 121.42168 17506 ft 393 kts 45°
2026-05-06 14:26 25.51593 121.44454 18321 ft 396 kts 45°
2026-05-06 14:26 25.53406 121.46777 19078 ft 400 kts 45°
2026-05-06 14:26 25.55246 121.49135 19778 ft 406 kts 45°
2026-05-06 14:27 25.57088 121.51495 20522 ft 409 kts 44°
2026-05-06 14:27 25.58938 121.53868 21233 ft 412 kts 44°
2026-05-06 14:27 25.60830 121.56295 21880 ft 416 kts 44°
2026-05-06 14:27 25.62711 121.58709 22484 ft 420 kts 44°
2026-05-06 14:28 25.64622 121.61163 23186 ft 422 kts 44°
2026-05-06 14:28 25.66540 121.63627 23823 ft 425 kts 44°
2026-05-06 14:28 25.68492 121.66135 24439 ft 428 kts 44°
2026-05-06 14:28 25.70438 121.68637 25018 ft 431 kts 44°
2026-05-06 14:29 25.72399 121.71158 25573 ft 434 kts 44°
2026-05-06 14:29 25.74354 121.73674 26129 ft 436 kts 43°
2026-05-06 14:29 25.76339 121.76231 26714 ft 437 kts 43°
2026-05-06 14:29 25.78317 121.78780 27259 ft 439 kts 43°
2026-05-06 14:30 25.80364 121.81351 27719 ft 439 kts 39°
2026-05-06 14:30 25.82685 121.83456 28159 ft 434 kts 30°
2026-05-06 14:30 25.85132 121.85416 28598 ft 436 kts 30°
2026-05-06 14:30 25.87614 121.87419 28959 ft 440 kts 30°
2026-05-06 14:31 25.92611 121.91457 28992 ft 444 kts 30°
2026-05-06 14:31 25.97532 121.95445 28988 ft 437 kts 30°
2026-05-06 14:32 26.02425 121.99410 28987 ft 434 kts 30°
2026-05-06 14:32 26.07348 122.03271 28988 ft 432 kts 29°
2026-05-06 14:33 26.12277 122.07122 28990 ft 434 kts 29°
2026-05-06 14:33 26.17226 122.10994 28992 ft 435 kts 29°
2026-05-06 14:34 26.22172 122.14869 28995 ft 435 kts 29°
2026-05-06 14:34 26.27102 122.18736 28995 ft 434 kts 29°
2026-05-06 14:35 26.32065 122.22633 28996 ft 435 kts 29°
2026-05-06 14:35 26.37035 122.26540 28995 ft 436 kts 30°
2026-05-06 14:36 26.41977 122.30429 28998 ft 437 kts 30°
2026-05-06 14:36 26.46964 122.34359 28999 ft 436 kts 30°
2026-05-06 14:37 26.51900 122.38252 29001 ft 438 kts 30°
2026-05-06 14:37 26.56904 122.42203 29002 ft 438 kts 30°
2026-05-06 14:38 26.61868 122.46128 29000 ft 437 kts 30°
2026-05-06 14:38 26.66824 122.50050 29003 ft 438 kts 30°
2026-05-06 14:39 26.71807 122.53998 29006 ft 438 kts 30°
2026-05-06 14:39 26.76784 122.57946 29003 ft 439 kts 30°
2026-05-06 14:40 26.81756 122.61893 29005 ft 440 kts 30°
2026-05-06 14:40 26.86724 122.65842 29010 ft 439 kts 31°
2026-05-06 14:41 26.91715 122.69815 29007 ft 439 kts 31°
2026-05-06 14:41 26.96726 122.73807 29009 ft 439 kts 31°
2026-05-06 14:42 27.01693 122.77769 29010 ft 439 kts 31°
2026-05-06 14:42 27.06656 122.81732 29008 ft 439 kts 31°
2026-05-06 14:43 27.11629 122.85710 29010 ft 439 kts 31°
2026-05-06 14:43 27.16615 122.89706 29012 ft 440 kts 31°
2026-05-06 14:44 27.19212 122.91429 29022 ft 432 kts 20°
2026-05-06 14:44 27.22093 122.92384 29020 ft 426 kts
2026-05-06 14:44 27.25025 122.92481 29020 ft 423 kts 353°
2026-05-06 14:45 27.30655 122.90612 29008 ft 421 kts 339°
2026-05-06 14:45 27.36149 122.88330 29015 ft 421 kts 338°
2026-05-06 14:45 27.38706 122.86795 29022 ft 422 kts 327°
2026-05-06 14:46 27.40907 122.84582 29024 ft 426 kts 314°
2026-05-06 14:46 27.42578 122.81802 29019 ft 432 kts 301°
2026-05-06 14:46 27.43583 122.78617 29023 ft 441 kts 287°
2026-05-06 14:46 27.43857 122.75143 29013 ft 449 kts 276°
2026-05-06 14:47 27.43858 122.71631 29010 ft 449 kts 276°
2026-05-06 14:47 27.43870 122.64653 29014 ft 448 kts 276°
2026-05-06 14:48 27.43880 122.57657 29014 ft 448 kts 276°
2026-05-06 14:48 27.43888 122.50653 29014 ft 448 kts 276°
2026-05-06 14:49 27.43894 122.43660 29015 ft 447 kts 277°
2026-05-06 14:49 27.44808 122.36835 29011 ft 439 kts 287°
2026-05-06 14:50 27.46002 122.30076 29010 ft 440 kts 287°
2026-05-06 14:50 27.47178 122.23382 29011 ft 439 kts 287°
2026-05-06 14:51 27.48358 122.16640 29009 ft 439 kts 287°
2026-05-06 14:51 27.49537 122.09873 29012 ft 440 kts 287°
2026-05-06 14:52 27.50710 122.03123 29011 ft 440 kts 287°
2026-05-06 14:52 27.51875 121.96394 29010 ft 439 kts 287°
2026-05-06 14:53 27.53039 121.89654 29008 ft 440 kts 287°
2026-05-06 14:53 27.54201 121.82899 29008 ft 440 kts 287°
2026-05-06 14:54 27.55355 121.76170 29010 ft 439 kts 287°
2026-05-06 14:54 27.56509 121.69419 29008 ft 439 kts 287°
2026-05-06 14:55 27.57662 121.62653 29010 ft 440 kts 287°
2026-05-06 14:55 27.58816 121.55918 29009 ft 440 kts 287°
2026-05-06 14:56 27.60000 121.49199 29008 ft 440 kts 287°
2026-05-06 14:56 27.61192 121.42408 29010 ft 440 kts 287°
2026-05-06 14:57 27.62372 121.35669 29007 ft 439 kts 287°
2026-05-06 14:57 27.63543 121.28960 29008 ft 439 kts 286°
2026-05-06 14:58 27.64723 121.22180 29009 ft 440 kts 286°
2026-05-06 14:58 27.65895 121.15421 29010 ft 440 kts 286°
2026-05-06 14:59 27.67061 121.08681 29010 ft 439 kts 286°
2026-05-06 14:59 27.68227 121.01916 29008 ft 440 kts 286°
2026-05-06 15:00 27.69393 120.95132 29007 ft 440 kts 286°
2026-05-06 15:00 27.70544 120.88416 29006 ft 439 kts 285°
2026-05-06 15:01 27.71698 120.81662 29004 ft 439 kts 286°
2026-05-06 15:01 27.72848 120.74912 29005 ft 439 kts 286°
2026-05-06 15:01 27.73686 120.71632 29006 ft 431 kts 297°
2026-05-06 15:02 27.75189 120.68765 29001 ft 425 kts 311°
2026-05-06 15:02 27.77292 120.66434 28995 ft 420 kts 324°
2026-05-06 15:02 27.79793 120.64815 28995 ft 419 kts 337°
2026-05-06 15:02 27.82596 120.63947 28995 ft 420 kts 351°
2026-05-06 15:03 27.85531 120.63886 28988 ft 424 kts
2026-05-06 15:03 27.91421 120.64471 29002 ft 424 kts
2026-05-06 15:04 27.97308 120.65050 28995 ft 424 kts
2026-05-06 15:04 28.03203 120.65630 29002 ft 423 kts
2026-05-06 15:05 28.09063 120.66206 29006 ft 424 kts
2026-05-06 15:05 28.14955 120.66785 29007 ft 425 kts
2026-05-06 15:06 28.20861 120.67365 29009 ft 424 kts
2026-05-06 15:06 28.26724 120.67942 29015 ft 424 kts
2026-05-06 15:07 28.32618 120.68522 29027 ft 424 kts
2026-05-06 15:07 28.38508 120.69102 29028 ft 424 kts
2026-05-06 15:08 28.44393 120.69682 29032 ft 425 kts
2026-05-06 15:08 28.50298 120.70275 29042 ft 425 kts
2026-05-06 15:09 28.56192 120.70869 29036 ft 425 kts